DL3NDS-13 Weather Reports


Display with metric or nautical units.
time (UTC)temp
F
wind
direction
speed
MPH
gust
MPH
rain 1hr
in
rain 24hr
in
rain mn
in
humidity
%
barometer
mb
20210624002256 59 340 1.0 0.0 0.00 0.03 0.00 92 1017.2
20210624001256 59 348 1.0 0.0 0.00 0.03 0.00 92 1017.2
20210624000757 59 359 3.0 0.0 0.00 0.03 0.00 93 1017.2
20210624000256 59 2 1.0 0.0 0.00 0.03 0.00 93 1017.2
20210623235757 60 341 3.0 0.0 0.00 0.03 0.00 93 1017.2
20210623235256 60 334 1.0 0.0 0.00 0.03 0.00 93 1017.2
20210623234757 60 347 3.0 0.0 0.00 0.03 0.00 93 1017.2
20210623234256 60 326 4.0 0.0 0.00 0.03 0.00 94 1017.2
20210623233757 60 0 0.0 0.0 0.00 0.03 0.00 94 1017.2
20210623233256 60 0 0.0 0.0 0.00 0.03 0.00 94 1017.1
20210623232757 60 0 0.0 0.0 0.00 0.03 0.00 94 1017.0
20210623232256 60 0 0.0 0.0 0.00 0.03 0.00 93 1016.9
20210623231757 60 71 1.0 0.0 0.00 0.03 0.00 93 1017.0
20210623231256 60 59 3.0 0.0 0.00 0.03 0.00 93 1016.9
20210623230757 60 56 3.0 0.0 0.00 0.03 0.00 93 1016.9
20210623230256 60 49 1.0 0.0 0.00 0.03 0.00 93 1016.7
20210623225757 60 53 3.0 0.0 0.00 0.03 0.00 93 1016.6
20210623225256 60 71 4.0 0.0 0.00 0.03 0.00 93 1016.6
20210623224757 60 56 3.0 0.0 0.00 0.03 0.00 93 1016.2
20210623224256 60 40 3.0 0.0 0.00 0.03 0.00 93 1015.9
20210623223757 60 43 3.0 0.0 0.00 0.03 0.00 93 1016.2
20210623223256 60 43 3.0 0.0 0.00 0.03 0.00 93 1016.4
20210623222256 60 21 1.0 0.0 0.00 0.03 0.00 93 1016.7
20210623221757 60 0 0.0 0.0 0.00 0.03 0.00 93 1016.9
20210623221256 60 0 0.0 0.0 0.00 0.03 0.00 93 1016.9
20210623220256 60 17 1.0 0.0 0.00 0.02 0.00 93 1016.9
20210623215757 61 1 3.0 0.0 0.00 0.02 0.00 92 1016.9
20210623215256 61 17 1.0 0.0 0.00 0.02 0.00 92 1017.2
20210623214757 61 0 0.0 0.0 0.00 0.02 0.00 92 1017.5
20210623214256 61 17 3.0 0.0 0.00 0.02 0.00 92 1017.6
20210623213757 61 0 0.0 0.0 0.00 0.02 0.00 92 1017.7
20210623213256 61 19 1.0 0.0 0.00 0.02 0.00 92 1018.0
20210623212757 61 11 1.0 0.0 0.00 0.02 0.00 92 1018.0
20210623212256 61 19 1.0 0.0 0.00 0.02 0.00 92 1018.1
20210623211757 61 26 3.0 0.0 0.00 0.02 0.00 92 1018.0
20210623211256 61 43 3.0 0.0 0.00 0.02 0.00 92 1018.2
20210623210757 61 22 1.0 0.0 0.00 0.02 0.00 91 1018.2
20210623210256 61 53 3.0 0.0 0.00 0.02 0.00 91 1018.2
20210623205757 61 58 3.0 0.0 0.00 0.02 0.00 91 1018.2
20210623205256 61 27 1.0 0.0 0.00 0.02 0.00 91 1018.2
20210623204757 61 12 1.0 0.0 0.00 0.02 0.00 91 1018.2
20210623204256 61 0 0.0 0.0 0.00 0.02 0.00 91 1018.2
20210623203757 61 347 1.0 0.0 0.00 0.02 0.00 91 1017.9
20210623203256 61 15 4.0 0.0 0.00 0.02 0.00 91 1017.6
20210623202757 61 6 1.0 0.0 0.00 0.02 0.00 91 1017.4
20210623202256 61 354 1.0 0.0 0.00 0.02 0.00 91 1017.2
20210623201757 61 0 0.0 0.0 0.00 0.02 0.00 91 1017.1
20210623201256 61 345 3.0 0.0 0.00 0.02 0.00 91 1017.1
20210623200757 61 341 3.0 0.0 0.00 0.02 0.00 91 1017.0
20210623200256 61 342 1.0 0.0 0.00 0.02 0.00 91 1017.0
20210623195757 61 333 3.0 0.0 0.00 0.02 0.00 91 1016.9
20210623195256 61 326 6.0 0.0 0.00 0.02 0.00 91 1017.0
20210623194757 61 340 1.0 0.0 0.00 0.02 0.00 91 1017.2
20210623194256 62 333 3.0 0.0 0.00 0.02 0.00 90 1017.5
20210623193757 62 333 6.0 0.0 0.00 0.02 0.00 90 1017.5
20210623193256 62 332 1.0 0.0 0.00 0.02 0.00 90 1017.2
20210623192757 62 352 3.0 0.0 0.00 0.02 0.00 90 1017.1
20210623192256 62 332 3.0 0.0 0.00 0.02 0.00 90 1017.2
20210623191757 62 342 1.0 0.0 0.00 0.02 0.00 90 1017.2
20210623191256 62 327 8.0 0.0 0.00 0.02 0.00 90 1017.0
20210623190757 62 329 6.0 0.0 0.00 0.02 0.00 90 1017.0
20210623190256 62 327 9.0 0.0 0.00 0.02 0.00 90 1017.0
20210623185256 63 0 0.0 0.0 0.00 0.02 0.00 89 1017.2
20210623184757 63 325 1.0 0.0 0.00 0.02 0.00 89 1017.2
20210623184256 63 0 0.0 0.0 0.00 0.02 0.00 88 1017.4
20210623183757 63 0 0.0 0.0 0.00 0.02 0.00 88 1017.4
20210623183256 64 341 1.0 0.0 0.00 0.02 0.00 88 1017.5
20210623182757 64 0 0.0 0.0 0.00 0.02 0.00 87 1017.5
20210623182256 64 0 0.0 0.0 0.00 0.02 0.00 87 1017.5
20210623181757 65 12 1.0 0.0 0.00 0.02 0.00 86 1017.5
20210623181256 65 8 3.0 0.0 0.00 0.02 0.00 86 1017.5
20210623180757 65 0 0.0 0.0 0.00 0.02 0.00 86 1017.6
20210623180256 65 329 1.0 0.0 0.00 0.02 0.00 86 1017.6
20210623175757 65 0 0.0 0.0 0.00 0.02 0.00 86 1017.5
20210623175256 66 0 0.0 0.0 0.00 0.02 0.00 85 1017.6
20210623174757 66 0 0.0 0.0 0.00 0.02 0.00 84 1017.7
20210623174256 66 19 1.0 0.0 0.00 0.02 0.00 83 1017.7
20210623173757 66 11 1.0 0.0 0.00 0.02 0.00 83 1017.7
20210623173256 66 18 3.0 0.0 0.00 0.02 0.00 82 1017.6
20210623172757 66 14 3.0 0.0 0.00 0.02 0.00 81 1017.7
20210623172256 66 41 1.0 0.0 0.00 0.02 0.00 81 1017.7
20210623171757 67 41 3.0 0.0 0.00 0.02 0.00 80 1017.7
20210623171256 67 39 1.0 0.0 0.00 0.02 0.00 80 1017.6
20210623170757 67 34 3.0 0.0 0.00 0.02 0.00 80 1017.6
20210623170256 67 53 4.0 0.0 0.00 0.02 0.00 80 1017.5
20210623165757 67 58 4.0 0.0 0.00 0.02 0.00 82 1017.5
20210623165256 67 28 3.0 0.0 0.00 0.02 0.00 81 1017.5
20210623164757 67 0 0.0 0.0 0.00 0.02 0.00 80 1017.7
20210623164256 67 0 0.0 0.0 0.00 0.02 0.00 81 1017.7
20210623163757 67 57 4.0 0.0 0.00 0.02 0.00 80 1017.9
20210623163256 67 52 6.0 0.0 0.00 0.02 0.00 79 1017.6
20210623162757 67 57 4.0 0.0 0.00 0.02 0.00 79 1017.6
20210623162256 68 61 9.0 0.0 0.00 0.02 0.00 78 1017.5
20210623161757 69 73 6.0 0.0 0.00 0.02 0.00 80 1017.6
20210623161054 68 354 1.0 0.0 0.00 0.02 0.00 81 1017.7
20210623160553 69 42 1.0 0.0 0.00 0.02 0.00 80 1017.9
20210623160054 69 36 3.0 0.0 0.00 0.02 0.00 80 1017.9
20210623155553 69 29 3.0 0.0 0.00 0.02 0.00 80 1018.1
20210623155054 68 55 1.0 0.0 0.00 0.02 0.00 81 1018.1
20210623154553 68 14 3.0 0.0 0.00 0.02 0.00 80 1018.2
20210623153553 67 318 8.0 0.0 0.00 0.02 0.00 82 1018.2
20210623153054 67 322 4.0 0.0 0.00 0.02 0.00 83 1018.4
20210623152553 67 323 6.0 0.0 0.00 0.02 0.00 84 1018.4
20210623152054 67 317 6.0 0.0 0.00 0.02 0.00 83 1018.5
20210623151553 67 325 9.0 0.0 0.00 0.02 0.00 83 1018.6
20210623151054 67 353 1.0 0.0 0.00 0.02 0.00 84 1018.6
20210623150553 66 319 6.0 0.0 0.00 0.02 0.00 84 1018.7
20210623150054 66 324 9.0 0.0 0.00 0.03 0.00 85 1018.6
20210623145553 66 327 4.0 0.0 0.00 0.03 0.00 85 1018.6
20210623145054 65 324 6.0 0.0 0.00 0.03 0.00 86 1018.6
20210623144553 65 327 4.0 0.0 0.00 0.03 0.00 85 1018.6
20210623144054 66 326 6.0 0.0 0.00 0.03 0.00 84 1018.6
20210623143553 66 330 1.0 0.0 0.00 0.03 0.00 85 1018.6
20210623143054 65 338 3.0 0.0 0.00 0.03 0.00 86 1018.5
20210623142553 65 319 6.0 0.0 0.00 0.03 0.00 85 1018.5
20210623142054 65 327 8.0 0.0 0.00 0.03 0.00 85 1018.5
20210623141553 65 328 8.0 0.0 0.00 0.03 0.00 86 1018.5
20210623141054 66 326 4.0 0.0 0.00 0.03 0.00 85 1018.6
20210623140553 65 9 1.0 0.0 0.00 0.03 0.00 87 1018.6
20210623135553 65 314 6.0 0.0 0.00 0.03 0.00 86 1018.7
20210623135054 65 325 8.0 0.0 0.00 0.03 0.00 86 1018.7
20210623134553 65 34 3.0 0.0 0.00 0.03 0.00 87 1018.7
20210623134054 64 8 1.0 0.0 0.00 0.03 0.00 89 1018.7
20210623133553 63 323 3.0 0.0 0.00 0.03 0.00 89 1018.7
20210623133054 63 7 1.0 0.0 0.00 0.03 0.00 89 1018.7
20210623132554 63 328 4.0 0.0 0.00 0.03 0.00 89 1018.9
20210623132054 63 326 8.0 0.0 0.00 0.03 0.00 89 1018.9
20210623131553 63 326 3.0 0.0 0.00 0.03 0.00 89 1018.9
20210623131054 63 328 1.0 0.0 0.00 0.03 0.00 89 1019.0
20210623130553 63 19 1.0 0.0 0.00 0.03 0.00 89 1019.1
20210623130054 63 0 0.0 0.0 0.00 0.03 0.00 89 1019.2
20210623125553 63 330 3.0 0.0 0.00 0.03 0.00 89 1019.1
20210623125054 63 0 0.0 0.0 0.00 0.03 0.00 89 1019.1
20210623124553 63 343 1.0 0.0 0.00 0.03 0.00 89 1019.1
20210623124054 63 0 0.0 0.0 0.00 0.03 0.00 90 1019.1
20210623123553 63 0 0.0 0.0 0.00 0.03 0.00 90 1019.1
20210623123054 63 22 3.0 0.0 0.00 0.03 0.00 90 1019.0
20210623122553 62 11 3.0 0.0 0.00 0.03 0.00 90 1019.0
20210623122054 62 18 1.0 0.0 0.00 0.03 0.00 91 1018.9
20210623121553 62 341 3.0 0.0 0.00 0.03 0.00 91 1018.7
20210623121054 62 326 6.0 0.0 0.00 0.03 0.00 90 1018.9
20210623120553 63 349 1.0 0.0 0.00 0.03 0.00 90 1018.7
20210623120054 62 346 1.0 0.0 0.00 0.03 0.00 92 1018.7
20210623115553 61 328 4.0 0.0 0.00 0.03 0.00 91 1018.7
20210623115054 62 331 3.0 0.0 0.00 0.03 0.00 92 1018.9
20210623114553 61 332 6.0 0.0 0.00 0.03 0.00 92 1018.7
20210623113553 62 328 9.0 0.0 0.00 0.03 0.00 91 1018.9
20210623113054 62 326 9.0 0.0 0.00 0.03 0.00 90 1018.9
20210623112553 62 334 4.0 0.0 0.00 0.03 0.00 89 1018.9
20210623112054 63 327 8.0 0.0 0.00 0.03 0.00 89 1018.9
20210623111553 64 350 3.0 0.0 0.00 0.03 0.00 88 1018.7
20210623111054 64 26 3.0 0.0 0.00 0.03 0.00 91 1018.7
20210623110553 63 20 4.0 0.0 0.00 0.03 0.00 89 1018.6
20210623110054 63 10 4.0 0.0 0.00 0.03 0.00 89 1018.7
20210623105553 63 15 1.0 0.0 0.00 0.03 0.00 90 1018.7
20210623105054 63 4 3.0 0.0 0.00 0.03 0.00 89 1018.7
20210623104553 63 330 1.0 0.0 0.00 0.03 0.00 89 1018.7
20210623103553 64 45 1.0 0.0 0.00 0.03 0.00 89 1018.7
20210623103054 64 0 0.0 0.0 0.00 0.03 0.00 89 1018.7
20210623102553 64 39 1.0 0.0 0.00 0.03 0.00 89 1018.7
20210623102054 63 39 1.0 0.0 0.00 0.03 0.00 89 1018.7
20210623101553 63 37 1.0 0.0 0.00 0.03 0.00 88 1018.7
20210623100553 63 37 1.0 0.0 0.00 0.03 0.00 90 1018.7
20210623100054 62 32 1.0 0.0 0.00 0.03 0.00 90 1018.7
20210623095553 62 0 0.0 0.0 0.00 0.03 0.00 91 1018.7
20210623095054 62 0 0.0 0.0 0.00 0.03 0.00 91 1018.7
20210623094553 62 0 0.0 0.0 0.00 0.03 0.00 92 1018.7
20210623094054 61 0 0.0 0.0 0.00 0.03 0.00 92 1018.7
20210623093553 62 79 1.0 0.0 0.00 0.03 0.00 91 1018.7
20210623093054 62 0 0.0 0.0 0.00 0.03 0.00 90 1018.6
20210623092553 62 0 0.0 0.0 0.00 0.03 0.00 90 1018.6
20210623092054 62 83 1.0 0.0 0.00 0.03 0.00 90 1018.6
20210623091553 61 0 0.0 0.0 0.00 0.03 0.00 90 1018.6
20210623091054 61 0 0.0 0.0 0.00 0.03 0.00 91 1018.7
20210623090553 61 101 1.0 0.0 0.00 0.03 0.00 90 1018.7
20210623090054 61 98 1.0 0.0 0.00 0.03 0.00 91 1018.7
20210623085553 61 97 1.0 0.0 0.00 0.03 0.00 91 1018.7
20210623085054 61 0 0.0 0.0 0.00 0.03 0.00 92 1018.6
20210623084553 61 86 1.0 0.0 0.00 0.03 0.00 91 1018.7
20210623084054 61 0 0.0 0.0 0.00 0.03 0.00 91 1018.7
20210623083130 61 0 0.0 0.0 0.00 0.03 0.00 91 1018.6
20210623082628 61 0 0.0 0.0 0.00 0.03 0.00 91 1018.6
20210623082130 61 65 1.0 0.0 0.00 0.03 0.00 91 1018.6
20210623081628 61 0 0.0 0.0 0.00 0.03 0.00 92 1018.5
20210623081130 61 64 1.0 0.0 0.00 0.03 0.00 92 1018.5
20210623080628 61 0 0.0 0.0 0.00 0.03 0.00 93 1018.5
20210623080130 60 0 0.0 0.0 0.00 0.03 0.00 92 1018.5
20210623075628 60 0 0.0 0.0 0.00 0.03 0.00 93 1018.5
20210623075130 60 0 0.0 0.0 0.00 0.03 0.00 93 1018.5
20210623074628 60 72 3.0 0.0 0.00 0.03 0.00 93 1018.4
20210623074130 60 92 3.0 0.0 0.00 0.03 0.00 93 1018.5
20210623073628 60 74 3.0 0.0 0.00 0.03 0.00 93 1018.5
20210623073130 60 55 1.0 0.0 0.00 0.03 0.00 93 1018.2
20210623072628 60 51 3.0 0.0 0.00 0.03 0.00 93 1018.2
20210623072129 60 75 3.0 0.0 0.00 0.03 0.00 94 1018.2
20210623071157 59 39 1.0 0.0 0.00 0.03 0.00 94 1018.2
20210623070659 59 0 0.0 0.0 0.00 0.03 0.00 94 1018.2
20210623070157 59 34 1.0 0.0 0.00 0.03 0.00 94 1018.1
20210623065659 59 34 1.0 0.0 0.00 0.03 0.00 95 1018.0
20210623065157 59 34 1.0 0.0 0.00 0.03 0.00 95 1018.1
20210623064659 59 0 0.0 0.0 0.00 0.03 0.00 95 1018.0
20210623064157 59 0 0.0 0.0 0.00 0.03 0.00 95 1018.0
20210623063659 59 0 0.0 0.0 0.00 0.03 0.00 95 1018.0
20210623063157 59 36 1.0 0.0 0.00 0.03 0.00 95 1018.0
20210623062659 59 0 0.0 0.0 0.00 0.03 0.00 95 1017.9
20210623062157 59 0 0.0 0.0 0.00 0.03 0.00 95 1018.0
20210623061659 59 0 0.0 0.0 0.00 0.03 0.00 95 1017.9
20210623061156 58 0 0.0 0.0 0.00 0.03 0.00 95 1017.9
20210623060659 58 0 0.0 0.0 0.00 0.03 0.00 95 1017.7
20210623060156 58 0 0.0 0.0 0.00 0.03 0.00 95 1017.6
20210623055659 58 38 1.0 0.0 0.00 0.03 0.00 95 1017.6
20210623055156 58 22 1.0 0.0 0.00 0.03 0.00 95 1017.6
20210623054659 58 0 0.0 0.0 0.00 0.03 0.00 95 1017.5
20210623054156 58 0 0.0 0.0 0.00 0.03 0.00 95 1017.5
20210623053659 58 0 0.0 0.0 0.00 0.03 0.00 95 1017.5
20210623053157 58 0 0.0 0.0 0.00 0.03 0.00 95 1017.5
20210623052659 58 55 3.0 0.0 0.00 0.03 0.00 95 1017.4
20210623052156 58 0 0.0 0.0 0.00 0.03 0.00 95 1017.2
20210623051659 58 0 0.0 0.0 0.00 0.03 0.00 95 1017.2
20210623051157 58 0 0.0 0.0 0.00 0.03 0.00 95 1017.4
20210623050659 58 0 0.0 0.0 0.00 0.02 0.00 95 1017.4
20210623050157 58 0 0.0 0.0 0.00 0.02 0.00 95 1017.2
20210623045659 58 0 0.0 0.0 0.00 0.02 0.00 95 1017.2
20210623045156 58 0 0.0 0.0 0.00 0.02 0.00 95 1017.4
20210623044659 58 0 0.0 0.0 0.00 0.02 0.00 95 1017.5
20210623044156 57 0 0.0 0.0 0.01 0.02 0.00 95 1017.5
20210623043659 57 0 0.0 0.0 0.01 0.02 0.00 95 1017.4
20210623043156 57 0 0.0 0.0 0.00 0.02 0.00 95 1017.5
20210623042659 57 0 0.0 0.0 0.01 0.02 0.00 95 1017.5
20210623042156 57 324 3.0 0.0 0.01 0.02 0.00 95 1017.2
20210623041659 57 325 3.0 0.0 0.01 0.02 0.00 95 1017.2
20210623041156 57 319 3.0 0.0 0.01 0.02 0.00 95 1017.2
20210623040659 57 324 6.0 0.0 0.01 0.02 0.00 95 1017.2
20210623040156 57 329 1.0 0.0 0.01 0.02 0.00 95 1017.2
20210623035659 57 0 0.0 0.0 0.01 0.02 0.00 95 1017.2
20210623035156 57 0 0.0 0.0 0.00 0.01 0.00 95 1017.2
20210623034659 57 324 1.0 0.0 0.00 0.01 0.00 95 1017.2
20210623034156 57 328 1.0 0.0 0.00 0.00 0.00 95 1017.2
20210623033659 57 0 0.0 0.0 0.00 0.00 0.00 94 1017.4
20210623033156 57 0 0.0 0.0 0.00 0.00 0.00 94 1017.4
20210623032659 57 0 0.0 0.0 0.00 0.00 0.00 94 1017.5
20210623032156 57 0 0.0 0.0 0.00 0.00 0.00 94 1017.5
20210623031659 57 0 0.0 0.0 0.00 0.00 0.00 94 1017.5
20210623031156 57 0 0.0 0.0 0.00 0.00 0.00 94 1017.5
20210623030659 57 0 0.0 0.0 0.00 0.00 0.00 94 1017.4
20210623030156 58 0 0.0 0.0 0.00 0.00 0.00 94 1017.2
20210623025659 57 0 0.0 0.0 0.00 0.00 0.00 94 1017.2
20210623025156 57 0 0.0 0.0 0.00 0.00 0.00 94 1017.2
20210623024659 57 0 0.0 0.0 0.00 0.00 0.00 94 1017.1
20210623024156 57 0 0.0 0.0 0.00 0.00 0.00 93 1017.0
20210623023659 58 326 4.0 0.0 0.00 0.00 0.00 93 1016.9
20210623023156 58 324 6.0 0.0 0.00 0.00 0.00 93 1016.9
20210623022659 58 323 6.0 0.0 0.00 0.00 0.00 93 1016.7
20210623022156 58 328 3.0 0.0 0.00 0.00 0.00 93 1017.0
20210623021659 58 312 1.0 0.0 0.00 0.00 0.00 93 1016.9
20210623021156 58 330 1.0 0.0 0.00 0.00 0.00 93 1016.7
20210623020659 58 328 3.0 0.0 0.00 0.00 0.00 93 1016.7
20210623020156 58 324 3.0 0.0 0.00 0.00 0.00 92 1016.7
20210623015659 58 325 6.0 0.0 0.00 0.00 0.00 92 1016.7
20210623015156 58 326 3.0 0.0 0.00 0.00 0.00 92 1016.7
20210623014659 58 325 3.0 0.0 0.00 0.00 0.00 92 1016.9
20210623014156 58 331 1.0 0.0 0.00 0.00 0.00 92 1016.7
20210623013156 58 331 1.0 0.0 0.00 0.00 0.00 92 1016.7
20210623012659 58 321 3.0 0.0 0.00 0.00 0.00 92 1016.7
20210623012156 58 309 4.0 0.0 0.00 0.00 0.00 92 1016.7
20210623011659 58 312 3.0 0.0 0.00 0.00 0.00 92 1016.7
20210623011156 58 324 3.0 0.0 0.00 0.00 0.00 92 1016.7
20210623010659 58 324 4.0 0.0 0.00 0.00 0.00 92 1016.6
20210623010156 58 318 8.0 0.0 0.00 0.00 0.00 92 1016.7
20210623005659 58 325 3.0 0.0 0.00 0.01 0.00 92 1016.7
20210623005156 58 327 3.0 0.0 0.00 0.01 0.00 92 1016.7
20210623004659 58 0 0.0 0.0 0.00 0.02 0.00 92 1016.6
20210623004156 58 332 1.0 0.0 0.00 0.02 0.00 92 1016.6
20210623003659 58 327 4.0 0.0 0.00 0.03 0.00 92 1016.6
20210623003156 58 0 0.0 0.0 0.00 0.03 0.00 92 1016.6
20210623002659 58 0 0.0 0.0 0.00 0.04 0.00 92 1016.6